Weather History for Medicine Hat, AB

Change the Weather History Date:

Wednesday, August 21, 2013

  Actual Average Record
Temperature  
Mean Temperature 46 °F -  
Max Temperature 77 °F 72 °F 91 °F (1998)
Min Temperature 15 °F 45 °F 15 °F (2013)
Degree Days  
Heating Degree Days 19    
Moisture  
Dew Point 40 °F    
Average Humidity 54    
Maximum Humidity 89    
Minimum Humidity 26    
Precipitation  
Precipitation 0.00 in 0.05 in - ()
Sea Level Pressure  
Sea Level Pressure 30.05 in    
Wind  
Wind Speed 7 mph ()    
Max Wind Speed 13 mph    
Max Gust Speed 18 mph    
Visibility 9.0 miles    
Events      
Averages and records for this station are not official NWS values.
T = Trace of Precipitation, MM = Missing Value Source: Averaged Metar Reports

Daily Weather History Graph

Daily Weather History Graph

Search for Another Location

Airport:

Trip Planner

Search our weather history database for the weather conditions in past years. The results will help you decide how hot, cold, wet, or windy it might be!

Date:

Astronomy

Aug. 21, 2013 Rise Set
Actual Time 6:21 AM MDT 8:28 PM MDT
Civil Twilight 5:46 AM MDT 9:03 PM MDT
Nautical Twilight 5:03 AM MDT 9:47 PM MDT
Astronomical Twilight 4:13 AM MDT 10:36 PM MDT
Moon 8:25 PM MDT (8/21) 7:16 AM MDT (8/21)
Length of Visible Light 15h 16m
Length of Day
14h 06m
Full, 99% of the Moon is Illuminated
Aug 21
Full
Aug 28
Last Quarter
Sep 5
New
Sep 12
First Quarter
Sep 19
Full

Hourly Weather History & Observations

Time (MDT) Temp. Windchill Dew Point Humidity Pressure Visibility Wind Dir Wind Speed Gust Speed Precip Events Conditions
12:00 AM 57.2 °F - 42.8 °F 59% 30.03 in 9.0 mi NNE 12.7 mph 18.4 mph N/A   Clear
1:00 AM 55.4 °F - 42.8 °F 63% 30.07 in 9.0 mi ENE 11.5 mph - N/A   Partly Cloudy
2:00 AM 53.6 °F - 42.8 °F 67% 30.09 in 9.0 mi East 10.4 mph - N/A   Clear
3:00 AM 53.6 °F - 42.8 °F 67% 30.08 in 9.0 mi East 5.8 mph - N/A   Clear
4:00 AM 51.8 °F - 42.8 °F 71% 30.09 in 9.0 mi ENE 5.8 mph - N/A   Clear
5:00 AM 50.0 °F - 42.8 °F 76% 30.10 in 9.0 mi NNE 4.6 mph - N/A   Clear
6:00 AM 18 °F - 16 °F 87% 29.47 in - South 8.1 mph - -  
6:00 AM 46.4 °F 42.9 °F 42.8 °F 87% 30.11 in 9.0 mi North 6.9 mph - N/A   Clear
7:00 AM 48.2 °F - 42.8 °F 82% 30.15 in 30.0 mi North 6.9 mph - N/A   Partly Cloudy
8:00 AM 53.6 °F - 44.6 °F 72% 30.17 in 30.0 mi NNW 4.6 mph - N/A   Partly Cloudy
9:00 AM 57.2 °F - 44.6 °F 63% 30.19 in 30.0 mi ENE 3.5 mph - N/A   Clear
10:00 AM 60.8 °F - 44.6 °F 55% 30.20 in 30.0 mi North 3.5 mph - N/A   Partly Cloudy
11:00 AM 64.4 °F - 44.6 °F 49% 30.20 in 30.0 mi Variable 2.3 mph - N/A   Partly Cloudy
12:00 PM 22 °F - 17 °F 73% 29.45 in - South 10.4 mph - -  
12:00 PM 68.0 °F - 44.6 °F 43% 30.19 in 30.0 mi East 5.8 mph - N/A   Partly Cloudy
1:00 PM 71.6 °F - 42.8 °F 35% 30.18 in 30.0 mi ESE 6.9 mph - N/A   Partly Cloudy
2:00 PM 73.4 °F - 41.0 °F 31% 30.16 in 30.0 mi East 5.8 mph - N/A   Partly Cloudy
3:00 PM 75.2 °F - 41.0 °F 29% 30.14 in 30.0 mi NNE 3.5 mph - N/A   Partly Cloudy
4:00 PM 77.0 °F - 39.2 °F 26% 30.12 in 30.0 mi NNE 2.3 mph - N/A   Partly Cloudy
5:00 PM 77.0 °F - 39.2 °F 26% 30.11 in 30.0 mi North 2.3 mph - N/A   Partly Cloudy
6:00 PM 22 °F - 20 °F 89% 29.45 in - SSW 8.1 mph - -  
6:00 PM 77.0 °F - 41.0 °F 28% 30.09 in 30.0 mi North 5.8 mph - N/A   Partly Cloudy
7:00 PM 77.0 °F - 41.0 °F 28% 30.09 in 30.0 mi NNE 5.8 mph - N/A   Clear
8:00 PM 73.4 °F - 41.0 °F 31% 30.09 in 30.0 mi NE 8.1 mph - N/A   Clear
9:00 PM 66.2 °F - 41.0 °F 40% 30.11 in 30.0 mi ENE 6.9 mph - N/A   Clear
10:00 PM 64.4 °F - 41.0 °F 42% 30.12 in 9.0 mi East 5.8 mph - N/A   Clear
11:00 PM 62.6 °F - 41.0 °F 45% 30.11 in 9.0 mi East 9.2 mph - N/A   Clear